Time,TemperatureF,DewpointF,PressureIn,WindDirection,WindDirectionDegrees,WindSpeedMPH,WindSpeedGustMPH,Humidity,HourlyPrecipIn,Conditions,Clouds,dailyrainin,SolarRadiationWatts/m^2,SoftwareType,DateUTC
2013-10-05 00:01:00,46.6,37.0,29.88,WNW,284,7.0,18.0,69,0.00,,,0.00,0,weatherlink.com 1.10,2013-10-05 05:01:00,
2013-10-05 00:16:00,46.5,37.0,29.89,WSW,240,7.0,15.0,70,0.00,,,0.00,0,weatherlink.com 1.10,2013-10-05 05:16:00,
2013-10-05 00:31:00,46.3,37.0,29.89,West,278,8.0,20.0,69,0.00,,,0.00,0,weatherlink.com 1.10,2013-10-05 05:31:00,
2013-10-05 00:46:00,46.1,36.0,29.90,West,277,6.0,19.0,69,0.00,,,0.00,0,weatherlink.com 1.10,2013-10-05 05:46:00,
2013-10-05 01:01:00,46.0,37.0,29.90,West,273,9.0,16.0,70,0.00,,,0.00,0,weatherlink.com 1.10,2013-10-05 06:01:00,
2013-10-05 01:16:00,45.3,36.0,29.90,WSW,251,5.0,18.0,71,0.00,,,0.00,0,weatherlink.com 1.10,2013-10-05 06:16:00,
2013-10-05 01:31:00,45.3,36.0,29.91,West,265,7.0,17.0,70,0.00,,,0.00,0,weatherlink.com 1.10,2013-10-05 06:31:00,
2013-10-05 01:46:00,45.4,36.0,29.91,West,274,5.0,18.0,70,0.00,,,0.00,0,weatherlink.com 1.10,2013-10-05 06:46:00,
2013-10-05 03:00:00,44.0,36.0,29.91,WSW,241,9.0,13.0,73,0.00,,,0.00,0,weatherlink.com 1.10,2013-10-05 08:00:00,
2013-10-05 03:16:00,43.4,36.0,29.91,WSW,257,6.0,13.0,74,0.00,,,0.00,0,weatherlink.com 1.10,2013-10-05 08:16:00,
2013-10-05 03:31:00,43.0,36.0,29.91,WSW,257,9.0,10.0,75,0.00,,,0.00,0,weatherlink.com 1.10,2013-10-05 08:31:00,
2013-10-05 03:46:00,42.7,36.0,29.90,WSW,257,6.0,9.0,76,0.00,,,0.00,0,weatherlink.com 1.10,2013-10-05 08:46:00,
2013-10-05 04:01:00,42.2,36.0,29.89,WSW,249,4.0,8.0,78,0.00,,,0.00,0,weatherlink.com 1.10,2013-10-05 09:01:00,
2013-10-05 04:16:00,41.9,36.0,29.89,WSW,248,6.0,8.0,78,0.00,,,0.00,0,weatherlink.com 1.10,2013-10-05 09:16:00,
2013-10-05 04:31:00,41.8,36.0,29.89,WSW,253,4.0,11.0,79,0.00,,,0.00,0,weatherlink.com 1.10,2013-10-05 09:31:00,
2013-10-05 04:46:00,41.9,36.0,29.89,SW,234,3.0,10.0,79,0.00,,,0.00,0,weatherlink.com 1.10,2013-10-05 09:46:00,
2013-10-05 05:01:00,41.8,36.0,29.89,WSW,245,6.0,11.0,79,0.00,,,0.00,0,weatherlink.com 1.10,2013-10-05 10:01:00,
2013-10-05 05:17:00,41.8,36.0,29.90,WSW,246,3.0,11.0,79,0.00,,,0.00,0,weatherlink.com 1.10,2013-10-05 10:17:00,
2013-10-05 05:32:00,41.8,36.0,29.90,West,264,3.0,12.0,79,0.00,,,0.00,0,weatherlink.com 1.10,2013-10-05 10:32:00,
2013-10-05 05:47:00,41.8,36.0,29.89,West,261,6.0,12.0,79,0.00,,,0.00,0,weatherlink.com 1.10,2013-10-05 10:47:00,
2013-10-05 06:02:00,41.5,36.0,29.89,WSW,238,7.0,9.0,80,0.00,,,0.00,0,weatherlink.com 1.10,2013-10-05 11:02:00,
2013-10-05 06:17:00,41.5,36.0,29.90,WSW,254,4.0,11.0,80,0.00,,,0.00,0,weatherlink.com 1.10,2013-10-05 11:17:00,
2013-10-05 06:32:00,41.7,36.0,29.90,WSW,243,8.0,13.0,80,0.00,,,0.00,0,weatherlink.com 1.10,2013-10-05 11:32:00,
2013-10-05 06:47:00,42.0,36.0,29.89,WSW,255,8.0,14.0,79,0.00,,,0.00,0,weatherlink.com 1.10,2013-10-05 11:47:00,
2013-10-05 07:02:00,41.9,36.0,29.90,WSW,247,9.0,14.0,79,0.00,,,0.00,0,weatherlink.com 1.10,2013-10-05 12:02:00,
2013-10-05 07:17:00,41.8,36.0,29.90,WSW,238,9.0,13.0,79,0.00,,,0.00,0,weatherlink.com 1.10,2013-10-05 12:17:00,
2013-10-05 07:32:00,42.4,36.0,29.90,SW,236,7.0,13.0,78,0.00,,,0.00,0,weatherlink.com 1.10,2013-10-05 12:32:00,
2013-10-05 07:47:00,42.5,36.0,29.89,WSW,250,13.0,16.0,78,0.00,,,0.00,21,weatherlink.com 1.10,2013-10-05 12:47:00,
2013-10-05 08:02:00,42.9,36.0,29.89,WSW,238,13.0,18.0,77,0.00,,,0.00,28,weatherlink.com 1.10,2013-10-05 13:02:00,
2013-10-05 08:17:00,42.7,36.0,29.89,WSW,248,10.0,16.0,76,0.00,,,0.00,28,weatherlink.com 1.10,2013-10-05 13:17:00,
2013-10-05 08:32:00,42.7,36.0,29.89,WSW,251,8.0,14.0,76,0.00,,,0.00,25,weatherlink.com 1.10,2013-10-05 13:32:00,
2013-10-05 08:47:00,43.5,36.0,29.89,WSW,242,7.0,17.0,75,0.00,,,0.00,54,weatherlink.com 1.10,2013-10-05 13:47:00,
2013-10-05 09:02:00,43.1,36.0,29.89,West,269,11.0,19.0,75,0.00,,,0.00,58,weatherlink.com 1.10,2013-10-05 14:02:00,
2013-10-05 09:17:00,43.5,36.0,29.89,WSW,237,14.0,18.0,74,0.00,,,0.00,60,weatherlink.com 1.10,2013-10-05 14:17:00,
2013-10-05 09:32:00,43.5,36.0,29.89,West,265,12.0,16.0,74,0.00,,,0.00,53,weatherlink.com 1.10,2013-10-05 14:32:00,
2013-10-05 09:47:00,44.2,36.0,29.89,West,265,9.0,20.0,73,0.00,,,0.00,107,weatherlink.com 1.10,2013-10-05 14:47:00,
2013-10-05 10:02:00,45.2,35.0,29.89,West,268,14.0,26.0,68,0.00,,,0.00,102,weatherlink.com 1.10,2013-10-05 15:02:00,
2013-10-05 10:17:00,46.9,36.0,29.89,WSW,252,13.0,25.0,66,0.00,,,0.00,149,weatherlink.com 1.10,2013-10-05 15:17:00,
2013-10-05 10:32:00,48.8,36.0,29.89,West,263,22.0,28.0,62,0.00,,,0.00,538,weatherlink.com 1.10,2013-10-05 15:32:00,
2013-10-05 10:47:00,49.9,37.0,29.90,WSW,242,19.0,29.0,62,0.00,,,0.00,563,weatherlink.com 1.10,2013-10-05 15:47:00,
2013-10-05 11:02:00,49.9,36.0,29.90,WSW,256,13.0,25.0,59,0.00,,,0.00,568,weatherlink.com 1.10,2013-10-05 16:02:00,
2013-10-05 11:17:00,51.0,36.0,29.90,West,264,19.0,25.0,57,0.00,,,0.00,232,weatherlink.com 1.10,2013-10-05 16:17:00,
2013-10-05 11:32:00,51.9,36.0,29.90,West,270,16.0,26.0,56,0.00,,,0.00,301,weatherlink.com 1.10,2013-10-05 16:32:00,
2013-10-05 11:48:00,50.6,36.0,29.91,WNW,287,10.0,27.0,57,0.00,,,0.00,425,weatherlink.com 1.10,2013-10-05 16:48:00,
2013-10-05 12:03:00,50.8,37.0,29.90,West,269,15.0,26.0,59,0.00,,,0.00,304,weatherlink.com 1.10,2013-10-05 17:03:00,
2013-10-05 12:18:00,51.0,36.0,29.90,WSW,240,17.0,27.0,57,0.00,,,0.00,369,weatherlink.com 1.10,2013-10-05 17:18:00,
2013-10-05 12:33:00,50.6,37.0,29.90,NW,309,21.0,26.0,60,0.00,,,0.00,353,weatherlink.com 1.10,2013-10-05 17:33:00,
2013-10-05 12:48:00,50.6,36.0,29.90,West,273,18.0,26.0,58,0.00,,,0.00,401,weatherlink.com 1.10,2013-10-05 17:48:00,
2013-10-05 13:03:00,50.8,36.0,29.90,West,264,20.0,25.0,58,0.00,,,0.00,287,weatherlink.com 1.10,2013-10-05 18:03:00,
2013-10-05 13:18:00,50.5,36.0,29.90,West,281,13.0,28.0,57,0.00,,,0.00,336,weatherlink.com 1.10,2013-10-05 18:18:00,
2013-10-05 13:33:00,51.4,37.0,29.89,West,273,18.0,24.0,58,0.00,,,0.00,290,weatherlink.com 1.10,2013-10-05 18:33:00,
2013-10-05 13:48:00,50.8,36.0,29.88,WNW,289,13.0,25.0,58,0.00,,,0.00,313,weatherlink.com 1.10,2013-10-05 18:48:00,
2013-10-05 14:03:00,50.7,36.0,29.88,West,270,18.0,26.0,57,0.00,,,0.00,257,weatherlink.com 1.10,2013-10-05 19:03:00,
2013-10-05 14:18:00,51.2,37.0,29.87,West,273,19.0,26.0,58,0.00,,,0.00,239,weatherlink.com 1.10,2013-10-05 19:18:00,
2013-10-05 14:33:00,51.8,36.0,29.87,WSW,242,12.0,25.0,56,0.00,,,0.00,374,weatherlink.com 1.10,2013-10-05 19:33:00,
2013-10-05 14:48:00,50.8,37.0,29.87,West,281,12.0,25.0,59,0.00,,,0.00,264,weatherlink.com 1.10,2013-10-05 19:48:00,
2013-10-05 15:03:00,50.6,37.0,29.86,West,264,14.0,23.0,60,0.00,,,0.00,160,weatherlink.com 1.10,2013-10-05 20:03:00,
2013-10-05 15:18:00,50.9,38.0,29.87,West,260,15.0,27.0,61,0.00,,,0.00,348,weatherlink.com 1.10,2013-10-05 20:18:00,
2013-10-05 15:33:00,50.9,39.0,29.87,West,267,12.0,27.0,64,0.00,,,0.00,568,weatherlink.com 1.10,2013-10-05 20:33:00,
2013-10-05 15:48:00,49.7,38.0,29.87,West,272,10.0,26.0,65,0.00,,,0.00,410,weatherlink.com 1.10,2013-10-05 20:48:00,
2013-10-05 16:03:00,49.4,38.0,29.86,WSW,247,10.0,23.0,64,0.00,,,0.00,183,weatherlink.com 1.10,2013-10-05 21:03:00,
2013-10-05 16:18:00,48.7,37.0,29.86,WSW,256,10.0,22.0,65,0.00,,,0.00,113,weatherlink.com 1.10,2013-10-05 21:18:00,
2013-10-05 16:33:00,48.6,37.0,29.86,WNW,288,9.0,21.0,64,0.00,,,0.00,100,weatherlink.com 1.10,2013-10-05 21:33:00,
2013-10-05 16:48:00,48.6,36.0,29.86,West,268,16.0,22.0,63,0.00,,,0.00,134,weatherlink.com 1.10,2013-10-05 21:48:00,
2013-10-05 17:03:00,48.7,36.0,29.86,West,267,13.0,21.0,62,0.00,,,0.00,72,weatherlink.com 1.10,2013-10-05 22:03:00,
2013-10-05 17:18:00,48.3,36.0,29.86,West,273,15.0,21.0,63,0.00,,,0.00,53,weatherlink.com 1.10,2013-10-05 22:18:00,
2013-10-05 17:33:00,47.2,36.0,29.87,West,265,16.0,27.0,66,0.00,,,0.00,93,weatherlink.com 1.10,2013-10-05 22:33:00,
2013-10-05 17:48:00,46.5,37.0,29.87,West,262,7.0,23.0,69,0.00,,,0.00,72,weatherlink.com 1.10,2013-10-05 22:48:00,
2013-10-05 18:03:00,46.7,37.0,29.86,WSW,254,11.0,18.0,68,0.00,,,0.00,54,weatherlink.com 1.10,2013-10-05 23:03:00,
2013-10-05 18:18:00,46.7,37.0,29.86,West,271,14.0,20.0,68,0.00,,,0.00,19,weatherlink.com 1.10,2013-10-05 23:18:00,
2013-10-05 18:33:00,46.3,37.0,29.86,WSW,245,14.0,24.0,69,0.00,,,0.00,12,weatherlink.com 1.10,2013-10-05 23:33:00,
2013-10-05 18:48:00,46.1,37.0,29.86,West,266,10.0,18.0,70,0.00,,,0.00,5,weatherlink.com 1.10,2013-10-05 23:48:00,
2013-10-05 19:03:00,46.1,36.0,29.86,West,262,13.0,22.0,67,0.00,,,0.00,0,weatherlink.com 1.10,2013-10-06 00:03:00,
2013-10-05 19:19:00,46.1,36.0,29.86,West,274,17.0,28.0,67,0.00,,,0.00,0,weatherlink.com 1.10,2013-10-06 00:19:00,
2013-10-05 19:34:00,45.6,36.0,29.86,West,273,9.0,25.0,68,0.00,,,0.00,0,weatherlink.com 1.10,2013-10-06 00:34:00,
2013-10-05 19:49:00,44.5,35.0,29.87,West,277,19.0,23.0,70,0.00,,,0.00,0,weatherlink.com 1.10,2013-10-06 00:49:00,
2013-10-05 20:04:00,44.5,36.0,29.88,WNW,289,10.0,23.0,71,0.00,,,0.00,0,weatherlink.com 1.10,2013-10-06 01:04:00,
2013-10-05 20:19:00,44.1,36.0,29.88,WNW,288,11.0,20.0,74,0.00,,,0.00,0,weatherlink.com 1.10,2013-10-06 01:19:00,
2013-10-05 20:34:00,43.9,36.0,29.87,West,270,17.0,21.0,75,0.00,,,0.00,0,weatherlink.com 1.10,2013-10-06 01:34:00,
2013-10-05 20:49:00,44.1,36.0,29.88,WNW,295,9.0,25.0,73,0.00,,,0.00,0,weatherlink.com 1.10,2013-10-06 01:49:00,
2013-10-05 21:04:00,43.9,36.0,29.87,West,263,21.0,27.0,74,0.00,,,0.00,0,weatherlink.com 1.10,2013-10-06 02:04:00,
2013-10-05 21:19:00,44.0,36.0,29.88,West,264,12.0,22.0,74,0.00,,,0.00,0,weatherlink.com 1.10,2013-10-06 02:19:00,
2013-10-05 21:34:00,43.8,36.0,29.87,West,273,13.0,26.0,75,0.00,,,0.00,0,weatherlink.com 1.10,2013-10-06 02:34:00,
2013-10-05 21:49:00,43.2,36.0,29.87,WNW,284,14.0,21.0,77,0.00,,,0.00,0,weatherlink.com 1.10,2013-10-06 02:49:00,
2013-10-05 22:04:00,42.7,37.0,29.87,West,277,6.0,20.0,79,0.00,,,0.00,0,weatherlink.com 1.10,2013-10-06 03:04:00,
2013-10-05 22:19:00,42.4,37.0,29.87,NW,304,10.0,19.0,80,0.00,,,0.00,0,weatherlink.com 1.10,2013-10-06 03:19:00,
2013-10-05 22:34:00,42.5,37.0,29.87,West,275,11.0,17.0,81,0.00,,,0.00,0,weatherlink.com 1.10,2013-10-06 03:34:00,
2013-10-05 22:49:00,42.7,37.0,29.86,West,272,13.0,20.0,81,0.00,,,0.00,0,weatherlink.com 1.10,2013-10-06 03:49:00,
2013-10-05 23:04:00,43.0,37.0,29.86,West,273,7.0,21.0,80,0.00,,,0.00,0,weatherlink.com 1.10,2013-10-06 04:04:00,
2013-10-05 23:19:00,43.1,37.0,29.86,WNW,284,12.0,20.0,80,0.00,,,0.00,0,weatherlink.com 1.10,2013-10-06 04:19:00,
2013-10-05 23:34:00,42.8,37.0,29.85,WNW,284,15.0,25.0,81,0.00,,,0.00,0,weatherlink.com 1.10,2013-10-06 04:34:00,
2013-10-05 23:49:00,42.2,38.0,29.85,West,279,14.0,20.0,84,0.00,,,0.00,0,weatherlink.com 1.10,2013-10-06 04:49:00,